Regional Weather Roundup
Issued by NWS

Home | Current Version | Previous Version | Text Only | Print | Product List | Glossary Off
Versions: 1 2 3 4 5 6 7 8 9 10 11 12 13 14 15 16 17 18 19 20 21 22 23 24 25 26 27 28 29 30 31 32 33 34 35 36 37 38 39 40 41 42 43 44 45 46 47 48 49 50

000
ASUS43 KLOT 210002
RWRIL

ILLINOIS REGIONAL WEATHER ROUNDUP
NATIONAL WEATHER SERVICE CHICAGO/ROMEOVILLE IL
700 PM CDT MON APR 20 2015

NOTE: "FAIR" INDICATES FEW OR NO CLOUDS BELOW 12,000 FEET WITH NO
SIGNIFICANT WEATHER AND/OR OBSTRUCTIONS TO VISIBILITY.

* THESE STATIONS ARE NOT UNDER NWS QUALITY CONTROL. THEY ALSO MAY NOT
  REPORT WEATHER SUCH AS PRECIPITATION OR FOG.

ILZ001-002-007-009-015-016-024-210100-
NORTHWEST ILLINOIS

CITY           SKY/WX    TMP DP  RH WIND       PRES   REMARKS
MOLINE         MOCLDY    48  33  56 W14       29.65R
6HR MIN TEMP:  45; 6HR MAX TEMP:  52; 6HR PCP: TRACE;

STERLING*      MOCLDY    46  36  66 W20G26    29.63R
$$

ILZ003-004-008-010-011-017-018-210100-
NORTH CENTRAL ILLINOIS

CITY           SKY/WX    TMP DP  RH WIND       PRES   REMARKS
ROCKFORD       MOCLDY    46  30  53 W16G25    29.60R
6HR MIN TEMP:  45; 6HR MAX TEMP:  47;

$$

ILZ005-006-012>014-019>023-210100-
NORTHEAST ILLINOIS

CITY           SKY/WX    TMP DP  RH WIND       PRES   REMARKS
CHICAGO-OHARE  CLOUDY    46  31  55 W20G33    29.57R
6HR MIN TEMP:  44; 6HR MAX TEMP:  47; 6HR PCP: TRACE;

CHICAGO-MIDWAY MOCLDY    48  31  51 W20G32    29.59R
6HR MIN TEMP:  47; 6HR MAX TEMP:  50; 6HR PCP: TRACE;

AURORA         CLEAR     46  31  55 W26G35    29.60R
6HR MIN TEMP:  46; 6HR MAX TEMP:  48;

WAUKEGAN       CLOUDY    44  32  62 W13G29    29.53R
6HR MIN TEMP:  44; 6HR MAX TEMP:  45; 6HR PCP:  0.02;

DUPAGE AIRPORT MOCLDY    46  32  58 W21G30    29.58R
6HR MIN TEMP:  45; 6HR MAX TEMP:  47; 6HR PCP: TRACE;

WHEELING       CLOUDY    46  31  55 W14G26    29.57R
6HR MIN TEMP:  44; 6HR MAX TEMP:  47; 6HR PCP: TRACE;

NORTHERLY ISL    N/A     47  31  54 W8          N/A
$$

LMZ740>746-210100-
SOUTHERN LAKE MICHIGAN

STATION/POSITION SKY/WX   TEMP    WIND        PRES    VSBY  WAVE
                          AIR SEA DIR/SP/G                  HT/PER
                          (F)     (DEG/KT/KT) (MB)    (MI)  (FT/S)
HARRISON CRIB              47     260/ 27/ 35   N/A
BURNHAM HARBOR             48     260/ 13/ 21   N/A
CALUMET HARBOR             48     240/ 13/ 21   N/A
BURNS HARBOR               48     260/ 29     1001.7R
MICHIGAN CITY              46     230/ 27/ 32   N/A
MICHIGAN CITY 6N           45 45  270/ 17/ 23   N/A           5/ 5
$$

ILZ025>027-034>036-040-047-049-050-058-095>099-210100-
WEST-CENTRAL ILLINOIS

CITY           SKY/WX    TMP DP  RH WIND       PRES   REMARKS
QUINCY         MOCLDY    52  27  38 W15G31    29.75R
$$

ILZ028>032-037-038-041>044-048-051>054-059>061-210100-
CENTRAL ILLINOIS

CITY           SKY/WX    TMP DP  RH WIND       PRES   REMARKS
DECATUR        CLOUDY    50  33  52 W12G23    29.73R
PEORIA         MOCLDY    52  31  44 W16G25    29.69R
6HR MIN TEMP:  50; 6HR MAX TEMP:  53; 6HR PCP: TRACE;

SPRINGFIELD    MOCLDY    52  35  52 W18       29.74R
6HR MIN TEMP:  50; 6HR MAX TEMP:  53;

TAYLORVILLE    NOT AVBL
$$

ILZ033-039-045-046-055>057-062-063-210100-
EAST-CENTRAL ILLINOIS

CITY           SKY/WX    TMP DP  RH WIND       PRES   REMARKS
CHAMPAIGN      MOCLDY    48  38  68 W14       29.71R
MATTOON        CLOUDY    49  36  61 W13G18    29.74R
$$

ILZ079-100>102-210100-
SOUTHWEST ILLINOIS

CITY           SKY/WX    TMP DP  RH WIND       PRES   REMARKS
BELLEVILLE     CLOUDY    55  32  41 NW10      29.79R
CAHOKIA*       CLOUDY    56  31  38 W13       29.79S
$$

ILZ064>066-069>071-074>076-080>082-084>086-088>090-092>094-210100-
SOUTH-CENTRAL ILLINOIS

CITY           SKY/WX    TMP DP  RH WIND       PRES   REMARKS
CARBONDALE     PTCLDY    57  32  38 NW12      29.80R
6HR MIN TEMP:  57; 6HR MAX TEMP:  61;

MT. VERNON     MOCLDY    54  34  47 W6        29.80R
$$

ILZ067-068-072-073-078-083-087-091-210100-
SOUTHEAST ILLINOIS

CITY           SKY/WX    TMP DP  RH WIND       PRES   REMARKS
LAWRENCEVILLE  CLOUDY    53  37  54 W10       29.77R
$$

ABBREVIATIONS USED IN REMARKS
   TC - TEMPERATURE IN CELSIUS
  WCI - WIND CHILL INDEX
   HX - HEAT INDEX
  VSB - VISIBILITY
$$



USA.gov is the U.S. government's official web portal to all federal, state and local government web resources and services.